Vertical_Velocity
-0 1 1 1 -1 1 0 -0 -1 0 -1 -1 -2 -0 -0 -1 -1 -0 -1 -1 -1 -1 -1 -2 -2 -1 -1 -1 -1 -1 -1 -1 -1 -1 -1 -1 -1 0 -2 -1 1 -1 -2
-0 3 1 0 1 1 0 -0 -0 -1 -1 0 0 0 -0 -0 -1 -1 -0 -1 -1 -1 -2 -1 -1 -1 -1 -0 -1 -2 -2 -1 -1 -1 -1 -1 -0 -2 -1 -0 -2 -1 0
-1 3 0 1 -0 -1 -0 -0 1 -0 -2 -0 1 -0 -1 -1 -1 0 -0 -1 -1 -1 -1 -1 -0 -0 -1 -2 -1 -2 -2 -1 -1 -1 -1 0 0 -1 -1 -2 -1 -0 1
-0 -4 2 0 1 1 0 -0 -1 1 -0 -0 0 -0 0 -1 -1 -0 -0 1 -1 -1 -1 -1 -1 -2 -2 -1 -1 -2 -2 -0 -1 -0 -0 -1 -1 -1 -0 1 -1 0 -2
1 -0 1 0 -0 0 1 1 1 0 0 -0 -1 -1 -0 -0 1 -0 -1 -1 0 0 -0 -1 -1 0 -0 -1 -1 -0 -2 0 -1 -1 -2 -2 -0 0 -0 -2 0 -0 1
0 2 -0 -0 1 2 0 0 1 1 -1 -0 -1 -1 -0 -1 -2 0 -2 -2 -2 -1 -1 0 -0 -0 -1 -0 -1 -1 -2 -1 -6 -2 -2 -2 -1 -1 2 -0 0 1 0
-0 1 1 1 -0 -1 1 0 -1 0 -1 -1 -0 -1 -2 -3 0 -1 -0 -0 1 -1 -1 -1 0 -1 0 -1 -1 -1 -1 2 -1 -2 -4 -5 -6 -4 -4 -3 -3 0 -1
-1 -1 2 2 0 -0 0 1 1 0 -1 -1 0 0 -1 -1 -1 -1 -1 -1 -1 0 1 -0 1 -0 -3 0 -1 -1 0 1 -0 -2 -2 -4 -2 -1 -1 -4 0 -2 -4
1 1 2 3 1 0 0 1 1 0 -2 1 2 5 -4 3 -6 1 -1 1 -2 -0 0 -0 1 2 -0 -0 -1 0 -2 0 1 -2 -1 1 -1 4 1 1 0 -0 4
-1 1 3 4 -1 -0 -1 -0 -1 -1 1 2 1 2 0 0 -0 0 3 -0 -1 0 1 1 2 -0 1 -0 1 -1 -1 -0 1 1 0 -2 0 0 5 8 3 4 3
1 0 -1 -0 -1 -0 -1 -2 0 1 3 1 -1 1 2 -1 -2 1 1 -2 -1 -4 -1 -1 1 3 -1 1 0 -0 1 -1 -2 1 1 1 0 -2 0 -5 -4 -1 -0
1 1 1 2 1 -2 -1 -0 2 0 2 -0 2 -1 -3 2 0 -2 -0 -2 -2 -2 -1 -3 -2 -2 -1 -2 1 1 0 -0 -2 -2 -2 -0 0 -1 -0 1 -4 1 7
1 2 -3 2 1 1 0 -2 -2 -0 3 2 6 -6 6 6 -3 -1 -1 4 -2 0 -1 -1 -1 -1 -1 1 -0 -2 -0 -1 -1 -1 0 -0 -2 3 1 0 7 7 4
-2 -4 1 1 0 -1 -2 1 -0 0 3 2 -1 6 6 -2 2 1 -1 -1 4 3 -0 -1 0 -5 -1 -1 -3 -4 -4 -1 -1 -1 -1 -1 -1 4 4 -3 -4 -12 -14
-3 -3 1 -2 -3 1 1 3 2 -0 -5 2 5 5 -4 0 1 -1 -1 -1 1 -1 2 2 2 -0 -4 -3 -5 -4 0 -2 -1 1 2 0 -1 -3 -3 -2 -5 -7 -0
-1 -4 -0 1 -2 1 2 1 3 -6 -2 7 1 13 -2 11 -1 0 -3 -0 0 -1 3 -7 -4 -3 -3 -2 -1 -2 0 -3 1 0 -2 -0 -4 1 -1 -2 4 -1 2
5 4 3 1 -0 -1 -0 0 -3 -3 -2 15 8 -1 -4 -1 -5 -2 -2 -1 -3 -2 -1 -2 -4 -4 -3 3 1 2 0 2 1 -1 -1 1 -3 3 5 -3 3 0 3
14 15 5 0 -3 1 -0 5 11 4 -0 -2 2 -5 -3 -5 -1 -3 -4 -0 -1 -1 -2 -3 -3 0 -7 0 -2 -1 0 -3 -4 -5 -4 1 -1 2 0 -5 -1 2 2
10 0 7 17 20 18 4 13 11 3 -0 9 -1 -1 -7 -4 0 -1 -3 -1 -2 -2 -5 -0 1 -2 2 -3 -2 -1 -4 -2 -3 -4 0 -5 -3 4 4 4 -0 -2 -1
11 -2 5 15 4 4 -7 -4 -4 -14 -11 -3 -12 -9 -5 -4 -2 -2 -3 -4 -3 -3 -1 -2 -2 1 -0 -0 -3 -3 -1 -5 -2 -2 -2 4 -4 -10 -9 -2 -1 2 4
-7 -8 -9 -8 -5 -5 -9 -5 -5 0 -5 -1 2 1 -1 -6 -3 -3 -1 -1 -2 -3 -0 -1 -2 -2 -1 -3 -2 -3 -0 3 -1 -0 2 1 5 -1 3 -1 5 5 4
-1 -3 -8 -2 5 4 -1 -3 1 1 -1 0 -3 8 -4 -4 1 -6 -4 -4 -1 -1 -1 -1 2 0 -5 -2 -1 -0 -1 1 8 -5 -1 1 -1 2 0 6 -6 -1 1
-8 -2 -2 2 1 3 0 -4 5 -1 -1 -2 -4 1 -2 -2 1 -2 -3 -2 1 1 -1 -2 2 2 2 0 1 -3 -5 -5 -7 -1 0 -3 6 -2 -3 5 2 -0 5
-10 -5 -4 1 0 -2 -3 -7 2 -1 2 2 -2 2 3 -1 -6 -4 -4 -1 -0 1 -2 -1 -4 2 -0 -3 -6 1 -4 -6 -4 -3 -2 6 2 -4 0 5 0 -1 1
-3 -6 -5 -0 1 -3 -2 2 -2 1 -0 2 -2 -4 -2 -5 -4 2 -3 -1 -1 1 -2 4 0 -1 -3 -2 3 -5 -3 -6 -5 -7 -7 -3 5 2 -1 5 1 -1 -1
-0 1 0 1 1 -1 -3 5 0 -3 -2 3 2 -3 -3 -7 -0 -1 -2 -2 -1 -1 6 2 -2 1 -0 3 -6 -0 -7 8 -6 -1 -9 1 -1 -5 0 1 1 0 -1
Height
5836 5841 5845 5848 5852 5855 5856 5858 5861 5863 5864 5865 5867 5868 5869 5870 5871 5871 5872 5872 5872 5872 5872 5871 5869 5867 5866 5865 5863 5861 5859 5856 5853 5851 5847 5844 5840 5836 5832 5831 5829 5826 5823
5830 5836 5840 5844 5848 5850 5853 5855 5857 5859 5861 5862 5864 5866 5867 5868 5869 5869 5869 5870 5870 5869 5868 5868 5866 5865 5863 5861 5859 5857 5855 5852 5850 5847 5844 5840 5836 5833 5831 5828 5825 5822 5819
5825 5831 5835 5840 5843 5847 5849 5851 5853 5855 5858 5859 5861 5862 5864 5864 5865 5866 5866 5866 5866 5866 5865 5864 5862 5861 5859 5858 5855 5853 5851 5848 5846 5844 5840 5836 5834 5831 5828 5824 5821 5818 5814
5821 5825 5831 5835 5839 5842 5844 5847 5850 5853 5854 5857 5858 5859 5859 5861 5861 5861 5862 5863 5862 5861 5860 5859 5858 5857 5855 5853 5851 5848 5845 5843 5841 5838 5835 5833 5830 5827 5824 5821 5817 5814 5810
5818 5821 5826 5830 5834 5838 5840 5842 5845 5848 5850 5852 5853 5854 5856 5856 5857 5858 5858 5858 5858 5858 5857 5855 5854 5853 5851 5849 5847 5844 5840 5838 5836 5833 5830 5827 5824 5822 5820 5817 5814 5810 5806
5812 5816 5820 5824 5829 5832 5835 5838 5840 5843 5845 5847 5849 5850 5851 5852 5853 5853 5853 5853 5853 5852 5851 5850 5849 5847 5846 5844 5841 5839 5836 5833 5830 5829 5825 5823 5819 5816 5813 5809 5806 5804 5801
5805 5811 5816 5820 5823 5827 5830 5832 5835 5838 5840 5842 5844 5845 5846 5847 5847 5848 5848 5848 5848 5847 5846 5845 5845 5844 5842 5840 5837 5835 5833 5831 5828 5825 5822 5817 5814 5810 5807 5805 5801 5797 5793
5799 5806 5812 5816 5820 5823 5826 5828 5831 5833 5836 5837 5839 5840 5841 5842 5843 5843 5843 5843 5842 5842 5841 5840 5840 5839 5836 5834 5832 5829 5827 5825 5822 5818 5816 5812 5809 5806 5801 5797 5793 5789 5785
5795 5801 5806 5810 5814 5817 5821 5823 5825 5827 5829 5832 5834 5835 5835 5838 5837 5838 5837 5837 5837 5836 5835 5835 5834 5834 5832 5829 5827 5824 5822 5820 5817 5814 5810 5807 5804 5799 5795 5790 5786 5782 5778
5789 5795 5799 5803 5808 5812 5815 5818 5820 5822 5825 5826 5828 5828 5829 5830 5831 5832 5833 5831 5831 5830 5829 5828 5828 5827 5826 5824 5821 5819 5816 5812 5810 5807 5804 5799 5793 5789 5785 5781 5777 5774 5770
5782 5787 5791 5797 5802 5806 5808 5811 5814 5816 5817 5820 5821 5822 5821 5823 5825 5825 5824 5825 5825 5824 5823 5823 5821 5821 5820 5818 5816 5812 5809 5805 5802 5797 5794 5790 5785 5781 5777 5773 5769 5764 5760
5773 5781 5786 5791 5795 5799 5801 5804 5806 5808 5811 5812 5814 5815 5816 5817 5818 5820 5819 5820 5820 5819 5818 5817 5816 5815 5813 5811 5809 5806 5802 5797 5793 5789 5784 5780 5776 5773 5769 5764 5760 5757 5753
5768 5775 5779 5783 5788 5791 5794 5797 5800 5802 5804 5806 5808 5808 5808 5808 5811 5814 5814 5814 5814 5813 5812 5811 5810 5809 5807 5805 5803 5798 5794 5788 5784 5780 5776 5773 5770 5766 5761 5757 5754 5750 5747
5760 5766 5771 5775 5779 5782 5785 5789 5792 5794 5797 5798 5798 5801 5802 5804 5806 5808 5808 5808 5807 5806 5807 5805 5804 5802 5800 5798 5795 5791 5786 5780 5776 5772 5769 5764 5760 5756 5753 5750 5745 5742 5739
5751 5757 5761 5765 5769 5772 5777 5780 5784 5786 5789 5790 5793 5793 5795 5797 5800 5800 5800 5800 5799 5798 5798 5796 5796 5795 5793 5791 5786 5781 5776 5771 5768 5764 5760 5757 5752 5748 5744 5740 5737 5734 5732
5743 5747 5753 5757 5760 5763 5768 5771 5775 5779 5780 5784 5784 5788 5787 5788 5792 5792 5792 5792 5790 5789 5790 5788 5787 5786 5785 5780 5776 5771 5766 5762 5758 5754 5751 5747 5742 5738 5734 5730 5726 5723 5722
5734 5739 5743 5747 5750 5754 5757 5761 5766 5769 5771 5774 5775 5779 5780 5782 5784 5784 5783 5783 5782 5782 5782 5781 5780 5778 5774 5770 5766 5760 5757 5753 5750 5745 5742 5737 5734 5729 5724 5720 5716 5714 5711
5729 5732 5734 5738 5744 5748 5751 5756 5761 5760 5761 5762 5768 5770 5772 5775 5775 5775 5775 5774 5774 5774 5774 5773 5771 5768 5764 5760 5756 5752 5750 5747 5743 5738 5733 5727 5721 5717 5712 5708 5705 5702 5700
5721 5724 5727 5734 5738 5744 5748 5750 5753 5753 5759 5761 5763 5765 5765 5767 5767 5766 5765 5765 5765 5764 5763 5762 5760 5757 5752 5750 5747 5744 5743 5739 5735 5730 5723 5718 5712 5705 5701 5697 5693 5690 5689
5718 5720 5722 5728 5732 5735 5740 5744 5746 5746 5750 5754 5756 5755 5756 5758 5758 5757 5756 5755 5754 5753 5753 5750 5748 5744 5742 5739 5736 5734 5732 5728 5723 5717 5713 5706 5700 5695 5690 5687 5683 5679 5678
5712 5715 5721 5725 5727 5729 5732 5736 5738 5738 5740 5742 5744 5747 5748 5748 5748 5747 5747 5746 5745 5744 5742 5740 5736 5734 5732 5730 5726 5723 5720 5716 5712 5706 5701 5694 5689 5685 5680 5676 5672 5670 5668
5708 5711 5716 5718 5721 5722 5724 5727 5729 5731 5734 5736 5736 5737 5739 5738 5737 5737 5736 5735 5734 5732 5729 5728 5726 5725 5722 5720 5716 5712 5709 5707 5702 5696 5691 5685 5679 5673 5669 5665 5662 5661 5659
5705 5707 5709 5712 5714 5716 5717 5719 5722 5724 5725 5726 5727 5728 5728 5727 5726 5725 5725 5723 5721 5719 5717 5716 5715 5714 5711 5710 5707 5703 5699 5695 5690 5685 5681 5675 5669 5665 5659 5655 5653 5652 5651
5700 5703 5705 5706 5706 5707 5708 5710 5711 5713 5715 5715 5715 5716 5716 5714 5714 5712 5711 5709 5709 5706 5705 5705 5704 5702 5701 5699 5697 5693 5689 5684 5680 5674 5670 5665 5659 5655 5650 5647 5645 5643 5641
5690 5692 5694 5695 5697 5698 5699 5699 5701 5702 5702 5703 5702 5703 5703 5703 5700 5699 5699 5697 5696 5695 5694 5693 5691 5690 5687 5685 5684 5680 5676 5673 5669 5664 5660 5655 5649 5644 5641 5639 5637 5634 5632
5678 5679 5681 5682 5683 5686 5687 5688 5690 5689 5690 5690 5689 5688 5688 5688 5687 5685 5686 5685 5684 5684 5683 5681 5678 5677 5675 5673 5672 5668 5664 5660 5657 5653 5648 5644 5639 5634 5631 5630 5628 5626 5625